METAR TAF

[Source: ADDS]
METAR
LFCR 170600Z AUTO 27004KT 8000 FEW007 BKN012 BKN019 15/14 Q1017 TEMPO 2000 BR BECMG BKN015 =
LFCR 170500Z 1706/1806 30006KT 9999 BKN007 BKN030 PROB40 TEMPO 1706/1707 2000 BR OVC003 BECMG 1707/1709 BKN015 BECMG 1709/1711 SCT025 BECMG 1714/1716 CAVOK BECMG 1721/1723 VRB02KT LFBA 170600Z AUTO 00000KT 9000 R29/1200U FEW010 13/13 Q1017 TEMPO 0600 FG BECMG BKN014 =
LFBA 170500Z 1706/1715 VRB02KT 4000 BR OVC009 PROB30 TEMPO 1706/1707 0600 FG OVC002 BECMG 1707/1709 9999 NSW BKN014 BECMG 1709/1711 CAVOK LFSL 170600Z AUTO VRB03KT 1400 1300 R29/1800U BR VV/// 14/14 Q1017 BECMG 6000 NSW BKN007 =
LFSL 170500Z 1706/1715 VRB02KT 2000 BR BKN003 PROB40 TEMPO 1706/1707 0500 FG VV/// BECMG 1707/1709 6000 NSW BKN007 BECMG 1709/1711 BKN013 BECMG 1711/1713 SCT020 BKN035
TAF
LFCR 170500Z 1706/1806 30006KT 9999 BKN007 BKN030 PROB40 TEMPO 1706/1707 2000 BR OVC003 BECMG 1707/1709 BKN015 BECMG 1709/1711 SCT025 BECMG 1714/1716 CAVOK BECMG 1721/1723 VRB02KT =
LFBA 170500Z 1706/1715 VRB02KT 4000 BR OVC009 PROB30 TEMPO 1706/1707 0600 FG OVC002 BECMG 1707/1709 9999 NSW BKN014 BECMG 1709/1711 CAVOK =
LFSL 170500Z 1706/1715 VRB02KT 2000 BR BKN003 PROB40 TEMPO 1706/1707 0500 FG VV/// BECMG 1707/1709 6000 NSW BKN007 BECMG 1709/1711 BKN013 BECMG 1711/1713 SCT020 BKN035 =
SR / SS: 05:36 / 18:00 UTC (LFCC 2021-09-17)